Location: Newark
(13.8117°N, 3.6025°W)
Time: 22:34:12
(UTC+00:00)

Explorer 11/Cluster Stage 4 - Visible Passes

Search period start: 24 August 2019 00:00
Search period end: 03 September 2019 00:00
Orbit: 467 x 1260 km, 28.8° (Epoch: 24 August)

Date Brightness Start Highest point End Pass type
(mag) Time Alt. Az. Time Alt. Az. Time Alt. Az.
25 Aug 8.9 05:33:39 10° S 05:37:51 20° SE 05:42:40 10° E visible
26 Aug 8.7 05:22:44 10° SSW 05:27:07 23° SE 05:32:15 10° E visible
27 Aug 8.3 05:11:54 10° SSW 05:16:23 27° SE 05:21:46 10° E visible
28 Aug 8.0 05:01:23 11° SSW 05:05:41 32° SE 05:11:12 10° E visible
29 Aug 7.6 04:51:48 18° SSW 04:55:00 37° SSE 05:00:35 10° E visible
30 Aug 7.1 04:42:12 28° SSW 04:44:21 45° SSE 04:49:55 10° ENE visible
31 Aug 6.6 04:32:35 43° SSW 04:33:44 55° SSE 04:39:13 10° ENE visible
01 Sep 6.2 04:22:55 67° S 04:23:09 69° SSE 04:28:31 10° ENE visible
02 Sep 6.4 04:13:14 66° ENE 04:13:14 66° ENE 04:17:46 10° ENE visible
